DAL265 KMIA-TNCM

Flight info

Callsign DAL265
Flight time 4h 28m
Altitude 35000
Route KLADA2 BITAC Y290 SLUGO ULUBA1
Aircraft B744/H-SDE3FGHIM1M2RWXY/LB1

Departure

Time 2026-04-30 13:10
Airport Miami International Airport (KMIA)

Arrival

Time 2026-04-30 17:39
Airport Princess Juliana International Airport (TNCM)
Time Latitude Longitude Altitude Speed Heading
2026-04-30 12:57 25.79131 -80.28126 9 ft 0 kts 344°
2026-04-30 13:02 25.79119 -80.28122 28 ft 3 kts 344°
2026-04-30 13:02 25.79102 -80.28116 28 ft 2 kts 344°
2026-04-30 13:02 25.79079 -80.28110 26 ft 3 kts
2026-04-30 13:03 25.79069 -80.28110 27 ft 3 kts 25°
2026-04-30 13:03 25.79056 -80.28116 28 ft 3 kts 55°
2026-04-30 13:03 25.79047 -80.28132 26 ft 3 kts 73°
2026-04-30 13:03 25.79041 -80.28154 29 ft 2 kts 72°
2026-04-30 13:04 25.79039 -80.28161 29 ft 1 kts 70°
2026-04-30 13:06 25.79042 -80.28150 29 ft 3 kts 79°
2026-04-30 13:06 25.79038 -80.28124 29 ft 4 kts 105°
2026-04-30 13:06 25.79018 -80.28084 27 ft 8 kts 122°
2026-04-30 13:06 25.78982 -80.28016 29 ft 12 kts 120°
2026-04-30 13:07 25.78933 -80.27921 29 ft 16 kts 119°
2026-04-30 13:07 25.78879 -80.27807 29 ft 14 kts 107°
2026-04-30 13:07 25.78878 -80.27704 24 ft 13 kts 88°
2026-04-30 13:07 25.78889 -80.27607 28 ft 12 kts 78°
2026-04-30 13:08 25.78884 -80.27570 28 ft 2 kts 121°
2026-04-30 13:08 25.78881 -80.27566 25 ft 1 kts 130°
2026-04-30 13:08 25.78868 -80.27557 30 ft 4 kts 151°
2026-04-30 13:08 25.78826 -80.27551 27 ft 8 kts 177°
2026-04-30 13:09 25.78782 -80.27560 26 ft 3 kts 214°
2026-04-30 13:09 25.78774 -80.27572 27 ft 1 kts 238°
2026-04-30 13:09 25.78773 -80.27583 28 ft 3 kts 261°
2026-04-30 13:09 25.78765 -80.27665 26 ft 29 kts 266°
2026-04-30 13:10 25.78747 -80.28253 26 ft 125 kts 269°
2026-04-30 13:10 25.78695 -80.29544 28 ft 206 kts 267°
2026-04-30 13:10 25.78622 -80.31233 608 ft 224 kts 267°
2026-04-30 13:10 25.78550 -80.32982 1507 ft 227 kts 266°
2026-04-30 13:11 25.78479 -80.34758 2288 ft 236 kts 266°
2026-04-30 13:11 25.78365 -80.36561 3075 ft 233 kts 266°
2026-04-30 13:11 25.78249 -80.38361 3763 ft 231 kts 258°
2026-04-30 13:11 25.77553 -80.39931 4379 ft 231 kts 227°
2026-04-30 13:12 25.76438 -80.41234 4978 ft 235 kts 224°
2026-04-30 13:12 25.75248 -80.42552 5520 ft 250 kts 225°
2026-04-30 13:12 25.73918 -80.43874 6078 ft 267 kts 209°
2026-04-30 13:13 25.70083 -80.44502 7292 ft 299 kts 178°
2026-04-30 13:13 25.67951 -80.44254 7897 ft 310 kts 165°
2026-04-30 13:13 25.64601 -80.41347 9191 ft 322 kts 121°
2026-04-30 13:14 25.63515 -80.39138 9871 ft 327 kts 116°
2026-04-30 13:14 25.62498 -80.36893 10466 ft 331 kts 118°
2026-04-30 13:14 25.60282 -80.32324 11681 ft 340 kts 106°
2026-04-30 13:15 25.59951 -80.29738 12346 ft 344 kts 89°
2026-04-30 13:15 25.60196 -80.24379 13620 ft 353 kts 85°
2026-04-30 13:15 25.60272 -80.21653 14217 ft 358 kts 87°
2026-04-30 13:16 25.60298 -80.18885 14795 ft 360 kts 87°
2026-04-30 13:16 25.60354 -80.16113 15388 ft 362 kts 86°
2026-04-30 13:16 25.60436 -80.13300 15991 ft 365 kts 86°
2026-04-30 13:17 25.60571 -80.07640 17227 ft 372 kts 87°
2026-04-30 13:17 25.60633 -80.04783 17854 ft 375 kts 87°
2026-04-30 13:17 25.60770 -79.98939 19040 ft 381 kts 87°
2026-04-30 13:18 25.60836 -79.96010 19607 ft 384 kts 87°
2026-04-30 13:18 25.60648 -79.90045 20796 ft 392 kts 91°
2026-04-30 13:18 25.60532 -79.87012 21405 ft 395 kts 91°
2026-04-30 13:19 25.60398 -79.83942 22029 ft 399 kts 91°
2026-04-30 13:19 25.60244 -79.80887 22669 ft 403 kts 91°
2026-04-30 13:19 25.60090 -79.77753 23326 ft 406 kts 91°
2026-04-30 13:19 25.59946 -79.74632 23906 ft 409 kts 91°
2026-04-30 13:20 25.59785 -79.71460 24457 ft 411 kts 95°
2026-04-30 13:20 25.59138 -79.68400 25050 ft 414 kts 111°
2026-04-30 13:20 25.58036 -79.65435 25647 ft 415 kts 113°
2026-04-30 13:20 25.56867 -79.62501 26222 ft 416 kts 113°
2026-04-30 13:21 25.55733 -79.59587 26805 ft 417 kts 112°
2026-04-30 13:21 25.54613 -79.56597 27417 ft 417 kts 112°
2026-04-30 13:21 25.53502 -79.53649 27922 ft 420 kts 112°
2026-04-30 13:22 25.51174 -79.47614 28941 ft 426 kts 112°
2026-04-30 13:22 25.50027 -79.44611 29478 ft 429 kts 112°
2026-04-30 13:22 25.47692 -79.38509 30458 ft 433 kts 113°
2026-04-30 13:23 25.46505 -79.35425 30925 ft 434 kts 112°
2026-04-30 13:23 25.44141 -79.29269 31841 ft 435 kts 112°
2026-04-30 13:24 25.41773 -79.23117 32699 ft 436 kts 112°
2026-04-30 13:24 25.39386 -79.16923 33408 ft 440 kts 112°
2026-04-30 13:25 25.36971 -79.10665 34120 ft 441 kts 112°
2026-04-30 13:25 25.34565 -79.04441 34793 ft 440 kts 112°
2026-04-30 13:26 25.30897 -78.94970 35010 ft 461 kts 112°
2026-04-30 13:26 25.28301 -78.88281 35014 ft 480 kts 112°
2026-04-30 13:28 25.21608 -78.71081 35013 ft 489 kts 112°
2026-04-30 13:28 25.17568 -78.60733 35015 ft 500 kts 112°
2026-04-30 13:29 25.11971 -78.46439 35017 ft 508 kts 112°
2026-04-30 13:31 25.04966 -78.28616 35012 ft 506 kts 112°
2026-04-30 13:32 24.97958 -78.10859 35016 ft 504 kts 112°
2026-04-30 13:33 24.92351 -77.96704 35022 ft 502 kts 112°
2026-04-30 13:34 24.88166 -77.86172 35027 ft 501 kts 112°
2026-04-30 13:35 24.82573 -77.72132 35033 ft 500 kts 112°
2026-04-30 13:36 24.76970 -77.58115 35028 ft 500 kts 112°
2026-04-30 13:36 24.72302 -77.47817 35016 ft 501 kts 117°
2026-04-30 13:37 24.67328 -77.37742 35019 ft 502 kts 116°
2026-04-30 13:38 24.62309 -77.27608 35017 ft 502 kts 116°
2026-04-30 13:39 24.55656 -77.14183 35018 ft 501 kts 116°
2026-04-30 13:40 24.50661 -77.04130 35020 ft 500 kts 116°
2026-04-30 13:40 24.47330 -76.97441 35022 ft 500 kts 116°
2026-04-30 13:41 24.43985 -76.90732 35018 ft 499 kts 116°
2026-04-30 13:41 24.40655 -76.84063 35025 ft 499 kts 116°
2026-04-30 13:42 24.37324 -76.77401 35019 ft 499 kts 116°
2026-04-30 13:42 24.32307 -76.67383 35020 ft 498 kts 116°
2026-04-30 13:43 24.28970 -76.60731 35021 ft 499 kts 116°
2026-04-30 13:43 24.25628 -76.54080 35025 ft 499 kts 116°
2026-04-30 13:44 24.22289 -76.47444 35027 ft 499 kts 116°
2026-04-30 13:44 24.18934 -76.40785 35027 ft 499 kts 116°
2026-04-30 13:45 24.14472 -76.31943 35026 ft 499 kts 116°
2026-04-30 13:46 24.10546 -76.24177 35024 ft 498 kts 116°
2026-04-30 13:46 24.07736 -76.18625 35026 ft 498 kts 116°
2026-04-30 13:47 24.04380 -76.12005 35022 ft 498 kts 116°
2026-04-30 13:47 24.01033 -76.05411 35028 ft 499 kts 116°
2026-04-30 13:48 23.97647 -75.98747 35028 ft 499 kts 116°
2026-04-30 13:48 23.94287 -75.92146 35028 ft 499 kts 116°
2026-04-30 13:49 23.90890 -75.85480 35030 ft 500 kts 116°
2026-04-30 13:49 23.87508 -75.78853 35030 ft 499 kts 117°
2026-04-30 13:50 23.84124 -75.72232 35033 ft 499 kts 117°
2026-04-30 13:50 23.79043 -75.62304 35031 ft 500 kts 117°
2026-04-30 13:51 23.75654 -75.55696 35031 ft 500 kts 117°
2026-04-30 13:51 23.72270 -75.49106 35025 ft 499 kts 117°
2026-04-30 13:52 23.68870 -75.42492 35023 ft 498 kts 117°
2026-04-30 13:52 23.65479 -75.35906 35021 ft 498 kts 117°
2026-04-30 13:53 23.62094 -75.29340 35021 ft 498 kts 117°
2026-04-30 13:53 23.58694 -75.22754 35024 ft 498 kts 117°
2026-04-30 13:54 23.55297 -75.16182 35025 ft 499 kts 118°
2026-04-30 13:54 23.51873 -75.09567 35024 ft 499 kts 118°
2026-04-30 13:55 23.48473 -75.03005 35026 ft 499 kts 118°
2026-04-30 13:55 23.45060 -74.96430 35028 ft 500 kts 118°
2026-04-30 13:56 23.41627 -74.89824 35030 ft 500 kts 118°
2026-04-30 13:56 23.38205 -74.83246 35028 ft 500 kts 118°
2026-04-30 13:57 23.34776 -74.76666 35031 ft 501 kts 119°
2026-04-30 13:57 23.31313 -74.70029 35031 ft 502 kts 119°
2026-04-30 13:58 23.26136 -74.60121 35030 ft 503 kts 119°
2026-04-30 13:59 23.22693 -74.53543 35033 ft 503 kts 119°
2026-04-30 13:59 23.19235 -74.46946 35029 ft 503 kts 120°
2026-04-30 14:00 23.15769 -74.40342 35028 ft 504 kts 120°
2026-04-30 14:00 23.10541 -74.30397 35028 ft 505 kts 120°
2026-04-30 14:01 23.07053 -74.23773 35024 ft 505 kts 120°
2026-04-30 14:01 23.03565 -74.17158 35020 ft 506 kts 120°
2026-04-30 14:02 23.00063 -74.10524 35027 ft 506 kts 120°
2026-04-30 14:02 22.96571 -74.03917 35026 ft 507 kts 120°
2026-04-30 14:03 22.93047 -73.97260 35024 ft 508 kts 121°
2026-04-30 14:03 22.89522 -73.90610 35027 ft 508 kts 121°
2026-04-30 14:04 22.86003 -73.83978 35027 ft 509 kts 121°
2026-04-30 14:04 22.82474 -73.77338 35030 ft 509 kts 121°
2026-04-30 14:05 22.78929 -73.70674 35028 ft 510 kts 121°
2026-04-30 14:05 22.75383 -73.64019 35029 ft 511 kts 121°
2026-04-30 14:06 22.70039 -73.54004 35028 ft 513 kts 121°
2026-04-30 14:07 22.64666 -73.43956 35026 ft 514 kts 122°
2026-04-30 14:08 22.59286 -73.33913 35028 ft 516 kts 122°
2026-04-30 14:08 22.53873 -73.23827 35456 ft 517 kts 122°
2026-04-30 14:09 22.52067 -73.20469 35741 ft 520 kts 122°
2026-04-30 14:09 22.50234 -73.17061 36038 ft 523 kts 122°
2026-04-30 14:09 22.46571 -73.10255 36607 ft 527 kts 122°
2026-04-30 14:10 22.44734 -73.06846 36888 ft 529 kts 122°
2026-04-30 14:10 22.42873 -73.03394 37181 ft 530 kts 123°
2026-04-30 14:10 22.41024 -72.99969 37469 ft 530 kts 123°
2026-04-30 14:10 22.39160 -72.96516 37764 ft 531 kts 123°
2026-04-30 14:11 22.37284 -72.93044 38066 ft 531 kts 123°
2026-04-30 14:11 22.35428 -72.89611 38364 ft 532 kts 123°
2026-04-30 14:11 22.33575 -72.86185 38662 ft 531 kts 123°
2026-04-30 14:11 22.31701 -72.82724 38918 ft 531 kts 123°
2026-04-30 14:12 22.29835 -72.79279 39172 ft 530 kts 123°
2026-04-30 14:12 22.27974 -72.75845 39426 ft 529 kts 123°
2026-04-30 14:12 22.26121 -72.72430 39687 ft 527 kts 123°
2026-04-30 14:12 22.24893 -72.70166 39861 ft 526 kts 123°
2026-04-30 14:13 22.22445 -72.65658 40206 ft 522 kts 123°
2026-04-30 14:13 22.20595 -72.62255 40462 ft 520 kts 123°
2026-04-30 14:13 22.18790 -72.58935 40711 ft 517 kts 123°
2026-04-30 14:13 22.16977 -72.55602 40975 ft 513 kts 123°
2026-04-30 14:14 22.15155 -72.52259 41009 ft 516 kts 123°
2026-04-30 14:14 22.11502 -72.45557 41022 ft 522 kts 123°
2026-04-30 14:15 22.07788 -72.38751 41034 ft 528 kts 123°
2026-04-30 14:15 22.04045 -72.31903 41033 ft 535 kts 123°
2026-04-30 14:16 22.00261 -72.24985 41035 ft 541 kts 123°
2026-04-30 14:16 21.96414 -72.17963 41034 ft 548 kts 123°
2026-04-30 14:17 21.92486 -72.10803 41034 ft 552 kts 123°
2026-04-30 14:17 21.88579 -72.03689 41038 ft 553 kts 123°
2026-04-30 14:18 21.84642 -71.96532 41044 ft 554 kts 123°
2026-04-30 14:18 21.78773 -71.85880 41042 ft 554 kts 123°
2026-04-30 14:19 21.72865 -71.75177 41038 ft 553 kts 123°
2026-04-30 14:20 21.68935 -71.68070 41032 ft 553 kts 123°
2026-04-30 14:20 21.63051 -71.57448 41027 ft 553 kts 124°
2026-04-30 14:21 21.59118 -71.50358 41031 ft 553 kts 124°
2026-04-30 14:22 21.53195 -71.39699 41023 ft 552 kts 124°
2026-04-30 14:22 21.47298 -71.29107 41017 ft 552 kts 124°
2026-04-30 14:23 21.39393 -71.14942 41020 ft 552 kts 124°
2026-04-30 14:24 21.33495 -71.04397 41020 ft 551 kts 124°
2026-04-30 14:25 21.25603 -70.90318 41015 ft 551 kts 124°
2026-04-30 14:26 21.19660 -70.79740 41013 ft 551 kts 124°
2026-04-30 14:27 21.13737 -70.69218 41015 ft 551 kts 124°
2026-04-30 14:27 21.09766 -70.62173 41017 ft 551 kts 124°
2026-04-30 14:28 21.03816 -70.51636 41014 ft 551 kts 124°
2026-04-30 14:28 20.99852 -70.44626 41033 ft 551 kts 124°
2026-04-30 14:29 20.92556 -70.31750 41029 ft 552 kts 124°
2026-04-30 14:31 20.82605 -70.14232 41024 ft 552 kts 125°
2026-04-30 14:31 20.75953 -70.02555 41019 ft 552 kts 125°
2026-04-30 14:32 20.70633 -69.93232 41015 ft 552 kts 125°
2026-04-30 14:33 20.66626 -69.86219 41017 ft 552 kts 125°
2026-04-30 14:33 20.60618 -69.75723 41016 ft 553 kts 125°
2026-04-30 14:34 20.56600 -69.68713 41012 ft 553 kts 125°
2026-04-30 14:34 20.52588 -69.61722 41020 ft 553 kts 126°
2026-04-30 14:35 20.46577 -69.51265 41016 ft 553 kts 126°
2026-04-30 14:36 20.42562 -69.44291 41017 ft 553 kts 126°
2026-04-30 14:36 20.38531 -69.37297 41015 ft 553 kts 126°
2026-04-30 14:37 20.34504 -69.30318 41014 ft 553 kts 126°
2026-04-30 14:37 20.30480 -69.23353 41015 ft 553 kts 126°
2026-04-30 14:38 20.26426 -69.16345 41013 ft 553 kts 126°
2026-04-30 14:38 20.22394 -69.09383 41012 ft 553 kts 126°
2026-04-30 14:39 20.18362 -69.02430 41008 ft 552 kts 126°
2026-04-30 14:39 20.14321 -68.95469 41006 ft 552 kts 126°
2026-04-30 14:40 20.08254 -68.85035 41006 ft 553 kts 126°
2026-04-30 14:40 20.04202 -68.78076 41007 ft 553 kts 126°
2026-04-30 14:41 20.00157 -68.71137 41006 ft 554 kts 127°
2026-04-30 14:41 19.96102 -68.64191 41006 ft 554 kts 127°
2026-04-30 14:42 19.92033 -68.57227 41003 ft 554 kts 127°
2026-04-30 14:42 19.87957 -68.50260 41010 ft 554 kts 127°
2026-04-30 14:43 19.83884 -68.43306 41011 ft 554 kts 127°
2026-04-30 14:43 19.79839 -68.36408 41002 ft 554 kts 127°
2026-04-30 14:44 19.75747 -68.29438 41005 ft 554 kts 127°
2026-04-30 14:44 19.71672 -68.22504 41001 ft 554 kts 127°
2026-04-30 14:45 19.67609 -68.15602 41005 ft 553 kts 127°
2026-04-30 14:45 19.63515 -68.08652 40999 ft 553 kts 127°
2026-04-30 14:46 19.59440 -68.01744 41005 ft 553 kts 127°
2026-04-30 14:46 19.55373 -67.94856 40997 ft 553 kts 127°
2026-04-30 14:47 19.51302 -67.87970 40998 ft 553 kts 127°
2026-04-30 14:47 19.47218 -67.81071 41000 ft 552 kts 127°
2026-04-30 14:48 19.43123 -67.74159 40995 ft 553 kts 127°
2026-04-30 14:48 19.39030 -67.67260 40997 ft 553 kts 127°
2026-04-30 14:49 19.34943 -67.60378 40997 ft 553 kts 127°
2026-04-30 14:49 19.30834 -67.53468 40991 ft 553 kts 127°
2026-04-30 14:50 19.24686 -67.43142 40991 ft 553 kts 127°
2026-04-30 14:51 19.18536 -67.32831 40990 ft 553 kts 127°
2026-04-30 14:52 19.12381 -67.22528 40992 ft 554 kts 127°
2026-04-30 14:52 19.06208 -67.12214 40985 ft 554 kts 127°
2026-04-30 14:53 19.00026 -67.01901 40989 ft 554 kts 127°
2026-04-30 14:54 18.91743 -66.88109 40983 ft 554 kts 127°
2026-04-30 14:55 18.85570 -66.77852 40988 ft 554 kts 127°
2026-04-30 14:56 18.77486 -66.63925 41014 ft 561 kts 116°
2026-04-30 14:56 18.75590 -66.55888 41019 ft 572 kts 96°
2026-04-30 14:57 18.75293 -66.51745 40997 ft 573 kts 95°
2026-04-30 14:58 18.74186 -66.34943 40997 ft 573 kts 96°
2026-04-30 14:58 18.73355 -66.22431 40995 ft 572 kts 96°
2026-04-30 15:00 18.71919 -66.01471 40992 ft 572 kts 96°
2026-04-30 15:01 18.70759 -65.84721 41006 ft 573 kts 96°
2026-04-30 15:01 18.69879 -65.72171 40656 ft 578 kts 96°
2026-04-30 15:02 18.69583 -65.67972 40123 ft 579 kts 96°
2026-04-30 15:02 18.69282 -65.63715 39608 ft 578 kts 96°
2026-04-30 15:03 18.68369 -65.50931 38028 ft 587 kts 96°
2026-04-30 15:03 18.67755 -65.42336 36951 ft 589 kts 96°
2026-04-30 15:04 18.67130 -65.33712 35937 ft 593 kts 96°
2026-04-30 15:04 18.66179 -65.20640 34483 ft 598 kts 95°
2026-04-30 15:05 18.65229 -65.07576 32933 ft 591 kts 95°
2026-04-30 15:06 18.64614 -64.99033 31891 ft 579 kts 95°
2026-04-30 15:06 18.64016 -64.90658 30868 ft 566 kts 95°
2026-04-30 15:07 18.63437 -64.82469 29827 ft 554 kts 95°
2026-04-30 15:07 18.62880 -64.74480 28697 ft 541 kts 95°
2026-04-30 15:08 18.62346 -64.66656 27584 ft 529 kts 95°
2026-04-30 15:08 18.61589 -64.55244 25994 ft 512 kts 96°
2026-04-30 15:09 18.61111 -64.47803 24971 ft 502 kts 96°
2026-04-30 15:09 18.60658 -64.40545 23989 ft 492 kts 96°
2026-04-30 15:10 18.60228 -64.33443 22903 ft 478 kts 96°
2026-04-30 15:11 18.59417 -64.19994 20639 ft 441 kts 101°
2026-04-30 15:11 18.57492 -64.14105 19708 ft 416 kts 119°
2026-04-30 15:12 18.54121 -64.05904 18387 ft 398 kts 113°
2026-04-30 15:13 18.52098 -64.00606 17397 ft 387 kts 116°
2026-04-30 15:14 18.48057 -63.90168 15580 ft 383 kts 114°
2026-04-30 15:14 18.45091 -63.82513 15003 ft 372 kts 114°
2026-04-30 15:16 18.40278 -63.70103 13360 ft 361 kts 114°
2026-04-30 15:17 18.34321 -63.62085 11931 ft 346 kts 139°
2026-04-30 15:18 18.25752 -63.53575 10007 ft 324 kts 137°
2026-04-30 15:19 18.21467 -63.49319 8698 ft 310 kts 137°
2026-04-30 17:39 18.04329 -63.11362 27 ft 0 kts 351°